[[{"header":{"parameterUnit":"m.s-1","parameterCategory":1,"la1":30.2991,"la2":30.254,"lo1":-89.0895,"lo2":-89.0444,"dy":0.0017,"dx":0.0017,"nx":28,"ny":28,"refTime":"2025-08-17T03:00:00:Z","depth":0,"parameterNumber":2,"parameterNumberName":"U-component_of_WINDS"},"data":[0,0,0,0,0,0,0,0,0,0,0,0,0,0,0,0,0,0,0,0,0,0,0,0,0,0,0,0,0,0,0,0,0,0,0,0,0,0,0,0,0,0,0,0,0,0,0,0,0,0,0,0,0,0,0,0,0,0,0.442,0.4422,0,0.459,0.4592,0.4594,0.4677,0.4677,0.4677,0.4677,0.4852,0.4857,0.4861,0,0,0,0,0,0,0,0,0,0,0,0,0,0.4171,0.4175,0.442,0.4422,0.4424,0.459,0.4592,0.4594,0.4677,0.4677,0.4677,0.4677,0.485,0.4856,0.4862,0,0,0,0,0,0,0,0,0,0,0,0,0,0.4303,0.4176,0.442,0.4486,0.4493,0.4589,0.4592,0.4595,0.4677,0.4677,0.4677,0.4677,0.4849,0.4855,0.4862,0.4906,0,0,0.4884,0.4887,0,0,0,0,0,0,0,0,0.4296,0.4313,0.4474,0.4481,0.449,0.4612,0.4568,0.4699,0.4677,0.4607,0.4677,0.4677,0.4772,0.4786,0.4818,0.4914,0.4922,0.4884,0.4889,0.4892,0.4894,0,0,0,0,0,0,0,0.4286,0.4306,0.4487,0.4476,0.4486,0.4508,0.4526,0.4593,0.4688,0.4613,0.462,0.4639,0.4777,0.4811,0.4822,0.4924,0.4884,0.489,0.4895,0.4898,0.5068,0.5069,0,0,0,0,0,0,0.4266,0.4297,0.4482,0.4492,0.4391,0.4512,0.4533,0.4573,0.4687,0.4705,0.4638,0.4642,0.4799,0.4814,0.4829,0.4889,0.4892,0.4898,0.4902,0.5068,0.5068,0.5069,0,0,0,0,0,0,0.4261,0.4282,0.4475,0.4397,0.4423,0.4516,0.456,0.4576,0.461,0.4706,0.4724,0.4655,0.4799,0.4819,0.4887,0.4896,0.4901,0.4908,0.5068,0.5068,0.5069,0.5009,0,0,0,0,0,0,0.4253,0.4279,0.4296,0.4397,0.4427,0.4529,0.4561,0.458,0.4622,0.4628,0.4727,0.4743,0.4801,0.4876,0.4894,0.4906,0.4913,0.5067,0.5068,0.5068,0.501,0.5007,0.5004,0,0,0,0,0,0.4244,0.4273,0.4297,0.4318,0.445,0.4529,0.4547,0.4612,0.4622,0.4641,0.4703,0.474,0.4892,0.4882,0.4903,0.4917,0.5067,0.5068,0.5068,0.5012,0.5008,0.5005,0,0,0,0,0,0,0.4171,0.4287,0.4315,0.4377,0.4443,0.4543,0.4568,0.4605,0.467,0.4673,0.4752,0.4773,0.4834,0.4883,0.4869,0.4967,0.4983,0.4988,0.4933,0.493,0.4927,0.4915,0.4919,0,0,0,0,0,0.4162,0.4216,0.4315,0.436,0.4392,0.4474,0.4511,0.4556,0.4627,0.4656,0.4723,0.4792,0.4855,0.4895,0.4959,0.5018,0.5042,0.5038,0.5035,0.5032,0.5036,0.5073,0.5073,0.5071,0.5071,0.5071,0,0,0.4144,0.4214,0.4244,0.4347,0.4404,0.4459,0.4497,0.4554,0.4596,0.4665,0.4733,0.4785,0.4867,0.4931,0.4962,0.4973,0.5042,0.5033,0.503,0.5036,0.5073,0.5073,0.5074,0.5072,0.5072,0.5072,0,0,0.414,0.4198,0.4243,0.4299,0.4384,0.4439,0.4449,0.4545,0.4582,0.4652,0.4705,0.4757,0.4864,0.4921,0.4964,0.4983,0.5021,0.5002,0.4987,0.5021,0.5022,0.5022,0.503,0.5032,0.5005,0.5005,0.5005,0,0.4107,0.4193,0.4261,0.4316,0.436,0.4425,0.4471,0.4522,0.4624,0.4654,0.4664,0.4801,0.4861,0.494,0.4945,0.4977,0.4993,0.4991,0.5016,0.5017,0.5019,0.5027,0.503,0.5002,0.5002,0.5003,0.5003,0,0.4149,0.4207,0.4233,0.433,0.4377,0.4427,0.4504,0.4545,0.4585,0.4639,0.4711,0.4785,0.4865,0.4888,0.4928,0.4973,0.4977,0.5,0.5019,0.5015,0.5025,0.5028,0.4998,0.4999,0.5,0.5001,0,0,0.4103,0.4238,0.4246,0.4291,0.439,0.4438,0.4491,0.457,0.4604,0.4672,0.472,0.481,0.4833,0.4881,0.4929,0.4959,0.4972,0.498,0.4983,0.4976,0.5028,0.501,0.5013,0.4997,0.4998,0.4999,0.5022,0,0.4114,0.4213,0.4276,0.435,0.4406,0.4469,0.4516,0.4583,0.4635,0.4691,0.4749,0.4812,0.4837,0.4867,0.49,0.4963,0.4983,0.4962,0.5044,0.5046,0.5022,0.5018,0.4999,0.5017,0.5026,0.5026,0.5027,0,0.4139,0.4206,0.4285,0.438,0.4406,0.4446,0.4525,0.4577,0.4654,0.4691,0.4745,0.4794,0.4855,0.4867,0.4953,0.4938,0.4975,0.5011,0.5014,0.5024,0.5036,0.5029,0.5024,0.5027,0.5033,0.5033,0.5032,0,0.41,0.4209,0.4271,0.4308,0.4419,0.4447,0.4495,0.4572,0.4616,0.4684,0.4714,0.4789,0.483,0.4887,0.4955,0.4958,0.5035,0.5053,0.5068,0.5066,0.5082,0.508,0.5083,0.5104,0.5104,0.5104,0.5104,0,0.4105,0.4151,0.4255,0.4293,0.4347,0.4421,0.4473,0.4526,0.4595,0.4645,0.4704,0.4751,0.4837,0.4895,0.4948,0.5012,0.503,0.5062,0.5076,0.5058,0.5054,0.5083,0.5084,0.5105,0.5105,0.5104,0.5104,0,0.407,0.4141,0.4213,0.4313,0.4339,0.4375,0.4461,0.4501,0.4557,0.462,0.4639,0.4727,0.4798,0.4872,0.4968,0.5004,0.5067,0.5085,0.504,0.5048,0.506,0.5058,0.5083,0.509,0.5105,0.5104,0.5104,0,0.4069,0.4106,0.421,0.4248,0.4295,0.4355,0.44,0.4474,0.4519,0.4611,0.4641,0.4716,0.478,0.4891,0.4964,0.5038,0.506,0.5064,0.5072,0.5052,0.5062,0.5059,0.5064,0.5061,0.506,0.506,0.5059,0,0.4061,0.4094,0.4157,0.4232,0.4284,0.4347,0.4412,0.444,0.4527,0.4575,0.4648,0.4698,0.4796,0.4871,0.4954,0.5005,0.5047,0.5056,0.5064,0.5046,0.5018,0.5035,0.5033,0.5055,0.5056,0.5056,0.5056,0.5057,0.4044,0.408,0.416,0.4228,0.4284,0.4344,0.4387,0.4449,0.4511,0.4596,0.4637,0.471,0.4789,0.4905,0.4955,0.5015,0.5027,0.5038,0.5041,0.5042,0.5038,0.5008,0.5031,0.5031,0.5031,0.5031,0.5031,0,0.404,0.4094,0.4155,0.4245,0.4299,0.4333,0.4408,0.4451,0.4514,0.4584,0.4646,0.4731,0.4804,0.4883,0.4962,0.4994,0.5016,0.5012,0.5011,0.5023,0.5023,0.5009,0.4994,0.4994,0.4994,0.4994,0.4994,0.4994,0.4044,0.4108,0.4151,0.4244,0.4299,0.4371,0.4411,0.4467,0.4523,0.4615,0.4675,0.4726,0.4801,0.4885,0.4954,0.4976,0.5003,0.4994,0.5021,0.5019,0.5022,0.5025,0.5012,0.4999,0.4999,0.5016,0.5016,0.5016]},{"header":{"parameterUnit":"m.s-1","parameterCategory":1,"la1":30.2991,"la2":30.254,"lo1":-89.0895,"lo2":-89.0444,"dy":0.0017,"dx":0.0017,"nx":28,"ny":28,"refTime":"2025-08-17T03:00:00:Z","depth":0,"parameterNumber":3,"parameterNumberName":"V-component_of_WINDS"},"data":[0,0,0,0,0,0,0,0,0,0,0,0,0,0,0,0,0,0,0,0,0,0,0,0,0,0,0,0,0,0,0,0,0,0,0,0,0,0,0,0,0,0,0,0,0,0,0,0,0,0,0,0,0,0,0,0,0,0,-1.0405,-1.0406,0,-1.0425,-1.0425,-1.0426,-1.0443,-1.0443,-1.0444,-1.0444,-1.0465,-1.0465,-1.0465,0,0,0,0,0,0,0,0,0,0,0,0,0,-1.0383,-1.0383,-1.0405,-1.0406,-1.0406,-1.0425,-1.0425,-1.0426,-1.0443,-1.0443,-1.0444,-1.0444,-1.0465,-1.0465,-1.0465,0,0,0,0,0,0,0,0,0,0,0,0,0,-1.0397,-1.0383,-1.0405,-1.0417,-1.0418,-1.0425,-1.0425,-1.0426,-1.0443,-1.0443,-1.0444,-1.0444,-1.0464,-1.0465,-1.0465,-1.0463,0,0,-1.0467,-1.0467,0,0,0,0,0,0,0,0,-1.0396,-1.0398,-1.0415,-1.0416,-1.0417,-1.0432,-1.0425,-1.0438,-1.0443,-1.0434,-1.0444,-1.0444,-1.0454,-1.0455,-1.0458,-1.0464,-1.0465,-1.0467,-1.0468,-1.0468,-1.0468,0,0,0,0,0,0,0,-1.0395,-1.0397,-1.0413,-1.0415,-1.0417,-1.0421,-1.0424,-1.0428,-1.0442,-1.0434,-1.0436,-1.0438,-1.0454,-1.0458,-1.0459,-1.0465,-1.0467,-1.0468,-1.0468,-1.0468,-1.0469,-1.0469,0,0,0,0,0,0,-1.0392,-1.0396,-1.0413,-1.0414,-1.0407,-1.0421,-1.0424,-1.0427,-1.0442,-1.0444,-1.0438,-1.0439,-1.0456,-1.0458,-1.046,-1.0457,-1.0468,-1.0468,-1.0469,-1.047,-1.0469,-1.0469,0,0,0,0,0,0,-1.0392,-1.0394,-1.0412,-1.0405,-1.0408,-1.0421,-1.0425,-1.0427,-1.043,-1.0444,-1.0447,-1.0438,-1.0457,-1.0459,-1.0462,-1.0458,-1.0469,-1.0469,-1.047,-1.047,-1.0469,-1.0452,0,0,0,0,0,0,-1.0391,-1.0393,-1.0392,-1.0405,-1.0408,-1.0413,-1.0425,-1.0427,-1.0431,-1.0433,-1.0445,-1.0448,-1.0457,-1.0461,-1.0462,-1.0459,-1.0469,-1.047,-1.047,-1.0469,-1.0453,-1.0451,-1.0449,0,0,0,0,0,-1.039,-1.0387,-1.0392,-1.0394,-1.0407,-1.0413,-1.0415,-1.0426,-1.0431,-1.043,-1.0439,-1.0447,-1.0458,-1.0461,-1.0463,-1.046,-1.0471,-1.047,-1.0469,-1.0454,-1.0451,-1.045,0,0,0,0,0,0,-1.0373,-1.0388,-1.0395,-1.0395,-1.0403,-1.0416,-1.0415,-1.0423,-1.0429,-1.043,-1.0444,-1.0446,-1.0448,-1.0454,-1.0457,-1.0458,-1.0466,-1.0465,-1.0453,-1.0451,-1.0449,-1.0447,-1.047,0,0,0,0,0,-1.0369,-1.0373,-1.0386,-1.0385,-1.0389,-1.0401,-1.0404,-1.0412,-1.042,-1.0424,-1.0433,-1.0441,-1.0446,-1.0449,-1.0455,-1.0455,-1.0457,-1.0453,-1.0451,-1.045,-1.0449,-1.0449,-1.0447,-1.0467,-1.0467,-1.0467,0,0,-1.0361,-1.037,-1.0372,-1.0382,-1.0389,-1.0392,-1.0404,-1.0407,-1.0409,-1.0424,-1.0427,-1.0434,-1.0444,-1.0445,-1.0447,-1.0451,-1.0445,-1.0449,-1.0448,-1.0448,-1.0448,-1.0447,-1.0445,-1.0466,-1.0467,-1.0467,0,0,-1.0349,-1.0356,-1.0356,-1.0363,-1.0373,-1.0381,-1.0381,-1.0393,-1.0399,-1.0402,-1.0413,-1.0417,-1.0426,-1.0432,-1.0437,-1.0427,-1.0435,-1.0429,-1.0419,-1.0419,-1.0417,-1.0416,-1.0412,-1.0411,-1.0428,-1.0428,-1.0428,0,-1.0338,-1.0343,-1.0355,-1.0357,-1.0362,-1.0375,-1.0375,-1.0381,-1.0393,-1.0395,-1.04,-1.0412,-1.0419,-1.0422,-1.042,-1.0423,-1.0424,-1.0427,-1.0417,-1.0415,-1.0414,-1.0411,-1.0409,-1.0427,-1.0427,-1.0427,-1.0427,0,-1.0329,-1.0333,-1.0331,-1.0342,-1.0346,-1.0347,-1.036,-1.0362,-1.037,-1.0378,-1.0382,-1.0391,-1.0399,-1.0401,-1.0408,-1.0405,-1.0407,-1.0414,-1.0422,-1.0411,-1.0408,-1.0407,-1.0426,-1.0426,-1.0426,-1.0427,0,0,-1.0305,-1.0323,-1.0322,-1.0327,-1.0339,-1.0342,-1.0344,-1.0351,-1.0353,-1.0361,-1.0363,-1.0371,-1.0377,-1.0382,-1.0391,-1.0391,-1.0382,-1.0398,-1.0399,-1.0394,-1.0379,-1.0372,-1.0371,-1.0388,-1.0388,-1.0388,-1.0378,0,-1.0294,-1.0298,-1.0309,-1.0309,-1.0313,-1.0326,-1.0328,-1.0336,-1.0344,-1.0348,-1.0357,-1.0361,-1.037,-1.0373,-1.0374,-1.0383,-1.0379,-1.0384,-1.039,-1.039,-1.0386,-1.0369,-1.0363,-1.0352,-1.0377,-1.0376,-1.0376,0,-1.0281,-1.0287,-1.0288,-1.03,-1.0302,-1.0303,-1.0311,-1.0315,-1.0325,-1.033,-1.0336,-1.0346,-1.0349,-1.0357,-1.0362,-1.0365,-1.0368,-1.0373,-1.0373,-1.0373,-1.0382,-1.0368,-1.0349,-1.0347,-1.0375,-1.0375,-1.0375,0,-1.0262,-1.0272,-1.0273,-1.0277,-1.0291,-1.0292,-1.0298,-1.0308,-1.0312,-1.0319,-1.0321,-1.0329,-1.0333,-1.0339,-1.035,-1.0355,-1.0353,-1.0363,-1.0358,-1.0358,-1.0356,-1.0356,-1.0336,-1.036,-1.036,-1.036,-1.036,0,-1.0248,-1.0248,-1.0265,-1.0266,-1.0266,-1.0279,-1.0279,-1.0287,-1.0295,-1.0298,-1.0311,-1.0313,-1.0329,-1.0333,-1.0342,-1.0344,-1.0346,-1.0351,-1.0353,-1.0349,-1.0348,-1.035,-1.0351,-1.0359,-1.036,-1.036,-1.036,0,-1.0227,-1.0238,-1.0241,-1.0254,-1.0258,-1.0257,-1.0269,-1.027,-1.0279,-1.0283,-1.0284,-1.0298,-1.0304,-1.0316,-1.0326,-1.0332,-1.0332,-1.0336,-1.0328,-1.0329,-1.0324,-1.0323,-1.0304,-1.0302,-1.0327,-1.0327,-1.0327,0,-1.0216,-1.0216,-1.023,-1.0232,-1.0238,-1.0242,-1.0246,-1.0259,-1.0263,-1.0274,-1.0274,-1.0281,-1.0287,-1.0296,-1.0307,-1.0314,-1.0318,-1.0311,-1.0319,-1.0315,-1.0317,-1.0317,-1.0316,-1.0309,-1.0309,-1.0308,-1.0308,0,-1.0196,-1.0202,-1.0207,-1.0214,-1.0218,-1.0224,-1.0231,-1.0233,-1.0248,-1.0252,-1.0257,-1.0262,-1.0272,-1.0278,-1.0287,-1.0294,-1.0303,-1.0306,-1.0305,-1.03,-1.0295,-1.0297,-1.0322,-1.0306,-1.0306,-1.0306,-1.0306,-1.0306,-1.0179,-1.0179,-1.0189,-1.0194,-1.0201,-1.0207,-1.0209,-1.0218,-1.0223,-1.0232,-1.024,-1.0245,-1.0255,-1.0268,-1.0274,-1.0279,-1.0284,-1.0282,-1.0282,-1.0281,-1.0279,-1.0295,-1.0281,-1.0281,-1.0281,-1.0281,-1.0281,0,-1.0158,-1.0165,-1.017,-1.0179,-1.0183,-1.0192,-1.0201,-1.0204,-1.0208,-1.0216,-1.0222,-1.0229,-1.0235,-1.0247,-1.0255,-1.0256,-1.0261,-1.0258,-1.0257,-1.0259,-1.0275,-1.0274,-1.0254,-1.0254,-1.0254,-1.0254,-1.0254,-1.0254,-1.0148,-1.0149,-1.0156,-1.0161,-1.0168,-1.0173,-1.0177,-1.0183,-1.019,-1.0197,-1.0202,-1.021,-1.022,-1.0228,-1.0235,-1.0239,-1.024,-1.0236,-1.024,-1.0255,-1.0257,-1.026,-1.0259,-1.0236,-1.0236,-1.0224,-1.0223,-1.0223]}]]